Location: Borojevi?i
(45.0486°N, 16.2297°E)
Time: 10:13:50
(UTC+00:00)

Okean 3 - Pass Details

Date: 08 August 2020
Orbit: 577 x 600 km, 82.5° (Epoch: 20 September)

Event Time Altitude Azimuth Distance (km) Brightness Sun altitude
Rises 21:08:07 0° 356° (N) 2,847 8.0 -24.0°
Reaches altitude 10° 21:10:24 10° 3° (N) 1,943 6.9 -24.2°
Enters shadow 21:13:59 43° 53° (NE) 842 4.2 -24.5°
